Погода в Зикееве

Россия / Калужская область     53°44′00″N   34°52′05″E
темп.,
°C
ветер,
м/с
пор.,
м/с
влажн.,
%
обл.,
%
осадки,
мм/ч
давл.,
гПа
погр.,
м
5 марта, пт
пт500:00−2сз4996100 0.3 1005514
03:00−5сз259499 0.3 1007129
06:00−7зсз249614 0.0 100984
09:00−5зсз249533 0.0 1011192
12:00−2сз358487 0.1 1012707
15:00−1зсз347491 0.2 1012987
18:00−4з238344 0.0 101447
21:00−6зюз229026 0.0 101525
6 марта, сб
сб600:00−6зюз249488 0.0 1016103
03:00−8з239660 0.0 101778
06:00−7сз389595 0.3 1017451
09:00−7ссз598697 0.6 1018499
12:00−5ссз477430 0.0 1019924
15:00−3сз466550 0.1 10191379
18:00−5зсз487651 0.2 1019311
21:00−7з388628 0.2 1019193
7 марта, вс
вс700:00−8зюз498615 0.0 1018248
03:00−7юз5128330 0.0 1015418
06:00−6юз71578100 0.0 1012644
09:00−5юз91787100 0.1 1006952
12:00−2зюз101792100 1.5 10011274
15:00−3зсз91689100 3.6 10011353
18:00−5з5136533 0.1 1004728
21:00−6зюз6166917 0.1 1004670
8 марта, пн
пн800:00−6зюз614730 0.0 1002606
03:00−6зюз615800 0.0 1001779
06:00−6зсз6118577 0.1 10021106
09:00−9сз6117766 0.1 1005962
12:00−7сз58690 0.0 1008958
15:00−5зсз58679 0.0 10091181
18:00−7з397827 0.0 1010384
21:00−9з349121 0.0 1012105
9 марта, вт
вт900:00−10зсз239534 0.0 101365
03:00−10ссз249567 0.1 1013133
06:00−11с3693100 0.2 1015347
09:00−12с4790100 0.3 1017503
12:00−11с4682100 0.1 1019730
15:00−10ссз4677100 0.1 1020772
18:00−11ссз368132 0.0 1021317
21:00−13сз238916 0.0 102486